Regional Weather Roundup
Issued by NWS

Home | Current Version | Previous Version | Text Only | Print | Product List | Glossary On
Versions: 1 2 3 4 5 6 7 8 9 10 11 12 13 14 15 16 17 18 19 20 21 22 23 24 25 26 27 28 29 30 31 32 33 34 35 36 37 38 39 40 41 42 43 44 45 46 47 48 49 50
708
ASUS45 KBOU 232110
RWRCO

WEATHER ROUNDUP FOR COLORADO
NATIONAL WEATHER SERVICE DENVER/BOULDER CO
200 PM MST TUE JAN 23 2018

NOTE: "FAIR" INDICATES FEW OR NO CLOUDS BELOW 12000 FEET WITH NO
SIGNIFICANT WEATHER AND/OR OBSTRUCTIONS TO VISIBILITY.

COZ001>005-013-030-031-232200-
...NORTHWEST COLORADO...

CITY           SKY/WX    TMP DP  RH WIND       PRES   REMARKS
CRAIG          FAIR      23  12  62 CALM      30.31S
HAYDEN         FAIR      21  15  78 SW5       30.30F WCI  15
MEEKER         FAIR      27  16  63 CALM      30.29F
RABBIT EARS PA CLOUDY   N/A N/A N/A W10G22    30.17R FOG
STEAMBOAT SPGS FAIR      28  12  52 CALM      30.27F
WALDEN         FAIR      25   5  42 SW16      30.21S WCI  12
$$

COZ006>008-011-232200-
...WEST CENTRAL VALLEYS...

CITY           SKY/WX    TMP DP  RH WIND       PRES   REMARKS
GRAND JUNCTION FAIR      32  22  66 N3        30.34F
MONTROSE       FAIR      36  10  34 NW6       30.32F
EAGLE          FAIR      35   9  33 SW10      30.28F WCI  27
RIFLE          FAIR      35  16  45 W6        30.31F WCI  30
DELTA          FAIR      40  11  30 CALM      30.32F
NUCLA          NOT AVBL
$$

COZ017>023-064>068-232200-
...SOUTHWEST COLORADO...

CITY           SKY/WX    TMP DP  RH WIND       PRES   REMARKS
DURANGO        FAIR      32  18  56 CALM      30.25F
CORTEZ         FAIR      37  20  50 SW9       30.26F
PAGOSA SPRINGS FAIR      30  12  46 SW3       30.24S
TELLURIDE      FAIR      32   4  30 W3        30.26S
WOLF CREEK PAS FAIR      19 -13  23 W6        30.26S WCI  11
$$

COZ009-010-012-014-032>034-037-058>063-232200-
...CENTRAL COLORADO...

CITY           SKY/WX    TMP DP  RH WIND       PRES   REMARKS
ASPEN          FAIR      32   6  33 N8        30.24F WCI  25
BUENA VISTA    FAIR      33   2  26 W6G16     30.19S WCI  28
COPPER MTN     NOT AVBL
BERTHOUD PASS    N/A      3  -8  60 NW38G51   30.07R HAZE    WCI -24
COTTONWOOD PAS FAIR      32   1  27 SE6       30.17S WCI  26
GUNNISON       FAIR      25   9  50 E3        30.27F
KREMMLING      FAIR      37  16  41 SW6       30.26F
LEADVILLE      FAIR      20   4  50 W18G29    30.17F WCI   5
MONARCH PASS     N/A     10   7  85 SW28G35   30.26S WCI -11
SALIDA         FAIR      37   8  30 S6        30.27S
SUNLIGHT       FAIR      16   9  73 SW5       30.26S WCI   9
WILKERSON PASS FAIR      19  -4  35 W5        30.17S WCI  13
$$

COZ069>075-232200-
...SAN LUIS VALLEY/SANGRE DE CRISTO MOUNTAINS...

CITY           SKY/WX    TMP DP  RH WIND       PRES   REMARKS
ALAMOSA        FAIR      33   9  36 VRB6      30.23S WCI  28
DEL NORTE      FAIR      35   2  24 E7        30.22S WCI  29
LA VETA PASS   FAIR      28   5  37 SW21G30     N/A  WCI  15
SAGUACHE       FAIR      32  10  40 SE6       30.23F WCI  26
$$

COZ035-036-038>040-232200-
...NORTHERN COLORADO FRONT RANGE...

CITY           SKY/WX    TMP DP  RH WIND       PRES   REMARKS
DENVER INTL AP FAIR      35  14  42 E10       30.19F WCI  27
DMNS CITY PARK NOT AVBL
AURORA         MOSUNNY   37  14  38 E9        30.19S
FRONT RANGE AP MOSUNNY   37  16  41 E9        30.20S
ERIE MUNI ARPT FAIR      42   8  24 W3        30.24S
BOULDER MUN AP FAIR      39  12  33 N8        30.17S
CENTENNIAL     FAIR      37   6  27 CALM      30.18F
BROOMFIELD     MOSUNNY   41   5  22 NW5       30.18F
FORT COLLINS   FAIR      38  19  46 S8        30.20S
LONGMONT       FAIR      42  15  34 E9        30.21S
$$

COZ041-046-047-076>085-087-088-232200-
...PIKES PEAK/PALMER DIVIDE AND SOUTHERN FOOTHILLS...

CITY           SKY/WX    TMP DP  RH WIND       PRES   REMARKS
COLO. SPRINGS  FAIR      41   8  25 S10       30.19F
A. F. ACADEMY  FAIR      38   7  27 SE10      30.17S
SCHRIEVER AFB  FAIR      39   1  20 E8        30.20S
CHEYENNE MTN   FAIR      35   5  29 SE10      30.12F WCI  27
ELLICOTT         N/A    N/A N/A N/A CALM      30.19S
FALCON         FAIR      37   2  23 E5        30.19S
FORT CARSON    FAIR      41   4  21 SE6       30.18F
LIMON          FAIR      37  11  34 CALM      30.22S
MONUMENT HILL  FAIR      32   5  32 CALM      30.19S
CANON CITY     FAIR      45  10  24 CALM      30.18S
WALSENBURG     NOT AVBL
TRINIDAD       FAIR      42   9  25 MISG      30.20F
$$

COZ042>045-048>051-090-091-232200-
...NORTHEAST COLORADO...

CITY           SKY/WX    TMP DP  RH WIND       PRES   REMARKS
GREELEY ARPT   FAIR      41  12  30 W6        30.20F
AKRON          FAIR      34  20  56 W7        30.21F WCI  28
BURLINGTON     FAIR      34  22  61 NW13      30.24R WCI  25
WRAY           FAIR      39  25  56 NW10      30.23S
YUMA           FAIR      34  21  60 NW15      30.22S WCI  24
STERLING       FAIR      39  21  48 NW22      30.21S
HOLYOKE        FAIR      41  23  48 NW16G22   30.22R
FORT MORGAN    FAIR      41  13  32 NW21G26   30.22R
$$

COZ086-089-092>099-232200-
...SOUTHEAST COLORADO...

CITY           SKY/WX    TMP DP  RH WIND       PRES   REMARKS
PUEBLO         FAIR      46   5  18 E3        30.20F
LA JUNTA       FAIR      45  12  26 CALM      30.24F
LAMAR          FAIR      43  14  31 VRB5      30.25F
SPRINGFIELD      N/A     44  12  27 NE6       30.24S
$$




USA.gov is the U.S. government's official web portal to all federal, state and local government web resources and services.